User: anonymous   Login
Location: Standeford and Andreas Observatories
(44.1397°N, 93.9969°W)
Time: 04:21:55
(UTC-06:00)
Language:

Cosmos 1500 Rocket - Orbit

View from above orbital plane
View from above orbital plane
View from above satellite
View from above satellite

Ground track
Ground track

The orbit data is extracted from the following two-line orbital elements,

1 14373U 83099B   15026.47933647  .00000281  00000-0  31278-4 0  8832
2 14373 082.5434 339.9522 0019518 222.1678 270.2946 14.83323509691487
Epoch (UTC): 26 January 2015 11:30:14
Eccentricity: 0.0019518
inclination: 82.5434°
perigee height: 605 km
apogee height: 632 km
right ascension of ascending node: 339.9522°
argument of perigee: 222.1678°
revolutions per day: 14.83323509
mean anomaly at epoch: 270.2946°
orbit number at epoch: 69148

The dashed part of the orbit path shows where the satellite is in the earth's shadow,  

DLR